When you browse on this site, cookies collect data to enhance your experience and personalize the content and advertising you see.
Visit our Privacy Policy to learn more. By continuing to use the site, you agree to this use of cookies and data.

Previsão horária em Nizhniy Katruh

Hoje, 9 Julho, Quinta-feira

Tempo Temperatura Precipitação Vento Pressão Humidade
00:00 +14°C° 0 mm 1 m/s 600 mmHg 68%
01:00 +14°C° 0 mm 1 m/s 600 mmHg 67%
02:00 +14°C° 0 mm 1 m/s 601 mmHg 65%
03:00 +14°C° 0 mm 2 m/s 601 mmHg 64%
04:00 +15°C° 0 mm 1 m/s 602 mmHg 63%
05:00 +18°C° 0 mm 1 m/s 603 mmHg 62%
06:00 +17°C° 0 mm 0 m/s 604 mmHg 62%
07:00 +20°C° 0 mm 1 m/s 604 mmHg 59%
08:00 +21°C° 0 mm 2 m/s 605 mmHg 56%
09:00 +23°C° 0 mm 2 m/s 605 mmHg 53%
10:00 +22°C° 0.7 mm 3 m/s 605 mmHg 54%
11:00 +22°C° 0.7 mm 3 m/s 606 mmHg 55%
12:00 +24°C° 0.7 mm 3 m/s 606 mmHg 57%
13:00 +22°C° 1.2 mm 3 m/s 605 mmHg 59%
14:00 +22°C° 1.2 mm 3 m/s 605 mmHg 61%
15:00 +23°C° 1.2 mm 2 m/s 605 mmHg 63%
16:00 +21°C° 1 mm 2 m/s 604 mmHg 67%
17:00 +20°C° 1 mm 2 m/s 604 mmHg 71%
18:00 +20°C° 1 mm 1 m/s 604 mmHg 76%
19:00 +19°C° 0.6 mm 1 m/s 604 mmHg 79%
20:00 +18°C° 0.6 mm 1 m/s 604 mmHg 83%
21:00 +15°C° 0.6 mm 1 m/s 604 mmHg 86%
22:00 +15°C° 0.2 mm 1 m/s 604 mmHg 87%
23:00 +15°C° 0.2 mm 1 m/s 604 mmHg 88%

Amanhã, 10 Julho, Sexta-feira

Tempo Temperatura Precipitação Vento Pressão Humidade
00:00 +15°C° 0.2 mm 1 m/s 604 mmHg 90%
01:00 +15°C° 0.2 mm 1 m/s 604 mmHg 89%
02:00 +15°C° 0.2 mm 1 m/s 604 mmHg 89%
03:00 +15°C° 0.2 mm 1 m/s 604 mmHg 89%
04:00 +15°C° 0.1 mm 1 m/s 604 mmHg 89%
05:00 +15°C° 0.1 mm 1 m/s 605 mmHg 89%
06:00 +16°C° 0.1 mm 1 m/s 605 mmHg 89%
07:00 +16°C° 0.6 mm 1 m/s 605 mmHg 88%
08:00 +17°C° 0.6 mm 2 m/s 606 mmHg 87%
09:00 +18°C° 0.6 mm 2 m/s 606 mmHg 86%
10:00 +18°C° 1.5 mm 2 m/s 606 mmHg 85%
11:00 +18°C° 1.5 mm 2 m/s 606 mmHg 84%
12:00 +19°C° 1.5 mm 2 m/s 606 mmHg 83%
13:00 +19°C° 1.6 mm 2 m/s 606 mmHg 84%
14:00 +18°C° 1.6 mm 2 m/s 606 mmHg 85%
15:00 +18°C° 1.6 mm 2 m/s 606 mmHg 86%
16:00 +18°C° 1.1 mm 2 m/s 605 mmHg 87%
17:00 +19°C° 1.1 mm 1 m/s 605 mmHg 88%
18:00 +18°C° 1.1 mm 1 m/s 605 mmHg 89%
19:00 +18°C° 0.7 mm 1 m/s 605 mmHg 91%
20:00 +16°C° 0.7 mm 1 m/s 605 mmHg 93%
21:00 +15°C° 0.7 mm 1 m/s 605 mmHg 94%
22:00 +15°C° 0.3 mm 1 m/s 605 mmHg 95%
23:00 +15°C° 0.3 mm 1 m/s 605 mmHg 96%

Depois de amanhã, 11 Julho, Sábado

Tempo Temperatura Precipitação Vento Pressão Humidade
00:00 +15°C° 0.3 mm 1 m/s 605 mmHg 97%
01:00 +15°C° 0.4 mm 1 m/s 605 mmHg 97%
02:00 +15°C° 0.4 mm 1 m/s 605 mmHg 97%
03:00 +15°C° 0.4 mm 1 m/s 605 mmHg 97%
04:00 +15°C° 0.8 mm 1 m/s 605 mmHg 97%
05:00 +14°C° 0.8 mm 1 m/s 605 mmHg 97%
06:00 +14°C° 0.8 mm 1 m/s 605 mmHg 97%
07:00 +15°C° 0.5 mm 1 m/s 605 mmHg 95%
08:00 +15°C° 0.5 mm 1 m/s 605 mmHg 93%
09:00 +15°C° 0.5 mm 1 m/s 606 mmHg 91%
10:00 +16°C° 0.7 mm 1 m/s 606 mmHg 89%
11:00 +18°C° 0.7 mm 1 m/s 606 mmHg 87%
12:00 +18°C° 0.7 mm 1 m/s 606 mmHg 86%
13:00 +18°C° 1.5 mm 1 m/s 605 mmHg 85%
14:00 +19°C° 1.5 mm 1 m/s 605 mmHg 85%
15:00 +19°C° 1.5 mm 1 m/s 605 mmHg 85%
16:00 +19°C° 1.4 mm 1 m/s 605 mmHg 85%
17:00 +18°C° 1.4 mm 1 m/s 605 mmHg 86%
18:00 +18°C° 1.4 mm 1 m/s 604 mmHg 87%
19:00 +16°C° 0.5 mm 1 m/s 604 mmHg 89%
20:00 +15°C° 0.5 mm 1 m/s 604 mmHg 91%
21:00 +13°C° 0.5 mm 0 m/s 604 mmHg 93%
22:00 +14°C° 0.1 mm 1 m/s 603 mmHg 92%
23:00 +13°C° 0.1 mm 1 m/s 603 mmHg 91%

12 Julho, Domingo

Tempo Temperatura Precipitação Vento Pressão Humidade
00:00 +13°C° 0.1 mm 1 m/s 603 mmHg 91%
01:00 +13°C° 0.1 mm 1 m/s 603 mmHg 90%
02:00 +13°C° 0.1 mm 1 m/s 602 mmHg 89%
03:00 +13°C° 0.1 mm 1 m/s 602 mmHg 88%
04:00 +14°C° 0 mm 1 m/s 603 mmHg 87%
05:00 +15°C° 0 mm 1 m/s 603 mmHg 86%
06:00 +16°C° 0 mm 1 m/s 603 mmHg 85%
07:00 +18°C° 0.4 mm 1 m/s 604 mmHg 81%
08:00 +19°C° 0.4 mm 1 m/s 604 mmHg 78%
09:00 +19°C° 0.4 mm 2 m/s 605 mmHg 75%
10:00 +19°C° 1.2 mm 2 m/s 604 mmHg 75%
11:00 +19°C° 1.2 mm 2 m/s 604 mmHg 76%
12:00 +19°C° 1.2 mm 2 m/s 604 mmHg 77%
13:00 +19°C° 2.1 mm 2 m/s 604 mmHg 80%
14:00 +19°C° 2.1 mm 1 m/s 603 mmHg 83%
15:00 +18°C° 2.1 mm 1 m/s 603 mmHg 86%
16:00 +18°C° 0.9 mm 1 m/s 602 mmHg 86%
17:00 +18°C° 0.9 mm 1 m/s 602 mmHg 86%
18:00 +18°C° 0.9 mm 1 m/s 602 mmHg 86%
19:00 +16°C° 0.1 mm 1 m/s 602 mmHg 86%
20:00 +16°C° 0.1 mm 1 m/s 602 mmHg 86%
21:00 +15°C° 0.1 mm 1 m/s 602 mmHg 86%
22:00 +15°C° 0 mm 1 m/s 601 mmHg 86%
23:00 +14°C° 0 mm 1 m/s 601 mmHg 87%

13 Julho, Segunda-feira

Tempo Temperatura Precipitação Vento Pressão Humidade
00:00 +13°C° 0 mm 1 m/s 601 mmHg 87%
01:00 +13°C° 0 mm 1 m/s 600 mmHg 87%
02:00 +13°C° 0 mm 1 m/s 600 mmHg 87%
03:00 +13°C° 0 mm 1 m/s 600 mmHg 87%
04:00 +14°C° 0 mm 1 m/s 601 mmHg 86%
05:00 +15°C° 0 mm 1 m/s 601 mmHg 86%
06:00 +16°C° 0 mm 1 m/s 602 mmHg 85%
07:00 +18°C° 0.1 mm 1 m/s 602 mmHg 80%
08:00 +19°C° 0.1 mm 2 m/s 602 mmHg 74%
09:00 +20°C° 0.1 mm 2 m/s 603 mmHg 69%
10:00 +20°C° 1.3 mm 2 m/s 603 mmHg 70%
11:00 +21°C° 1.3 mm 2 m/s 603 mmHg 71%
12:00 +21°C° 1.3 mm 2 m/s 603 mmHg 71%
13:00 +20°C° 1.9 mm 2 m/s 602 mmHg 73%
14:00 +20°C° 1.9 mm 2 m/s 602 mmHg 74%
15:00 +20°C° 1.9 mm 2 m/s 602 mmHg 75%
16:00 +20°C° 1.4 mm 2 m/s 602 mmHg 76%
17:00 +20°C° 1.4 mm 1 m/s 602 mmHg 77%
18:00 +20°C° 1.4 mm 1 m/s 601 mmHg 78%
19:00 +19°C° 0.4 mm 1 m/s 601 mmHg 80%
20:00 +18°C° 0.4 mm 1 m/s 601 mmHg 82%
21:00 +15°C° 0.4 mm 1 m/s 601 mmHg 83%
22:00 +15°C° 0.3 mm 1 m/s 601 mmHg 84%
23:00 +15°C° 0.3 mm 1 m/s 601 mmHg 85%

14 Julho, Terça-feira

Tempo Temperatura Precipitação Vento Pressão Humidade
00:00 +15°C° 0.3 mm 2 m/s 601 mmHg 85%
01:00 +15°C° 0.2 mm 1 m/s 601 mmHg 84%
02:00 +15°C° 0.2 mm 1 m/s 601 mmHg 83%
03:00 +15°C° 0.2 mm 1 m/s 601 mmHg 82%
04:00 +16°C° 0 mm 1 m/s 602 mmHg 80%
05:00 +16°C° 0 mm 1 m/s 602 mmHg 79%
06:00 +16°C° 0 mm 0 m/s 603 mmHg 77%
07:00 +19°C° 0.5 mm 1 m/s 603 mmHg 76%
08:00 +19°C° 0.5 mm 1 m/s 604 mmHg 75%
09:00 +19°C° 0.5 mm 2 m/s 604 mmHg 74%
10:00 +20°C° 1.4 mm 2 m/s 604 mmHg 73%
11:00 +20°C° 1.4 mm 2 m/s 604 mmHg 71%
12:00 +21°C° 1.4 mm 2 m/s 605 mmHg 69%
13:00 +21°C° 1.3 mm 2 m/s 605 mmHg 69%
14:00 +21°C° 1.3 mm 2 m/s 605 mmHg 69%
15:00 +21°C° 1.3 mm 2 m/s 604 mmHg 69%
16:00 +20°C° 0.9 mm 2 m/s 604 mmHg 71%
17:00 +21°C° 0.9 mm 1 m/s 604 mmHg 73%
18:00 +20°C° 0.9 mm 1 m/s 604 mmHg 75%
19:00 +19°C° 0.3 mm 1 m/s 604 mmHg 78%
20:00 +16°C° 0.3 mm 1 m/s 603 mmHg 82%
21:00 +14°C° 0.3 mm 1 m/s 603 mmHg 85%
22:00 +14°C° 0 mm 1 m/s 603 mmHg 85%
23:00 +14°C° 0 mm 1 m/s 603 mmHg 85%
Mostrar mais